Location: Astronomy Club of Akron Observatory
(40.9700°N, 81.5606°W)
Time: 19:23:12
(UTC-04:00)

Hubble Space Telescope - Pass Details

Date: 18 July 2018
Orbit: 537 x 541 km, 28.5° (Epoch: 17 July)

Event Time Altitude Azimuth Distance (km) Brightness Sun altitude
Exits shadow 05:31:49 - 220° (SW) 1,942 3.0 -6.9°
Reaches altitude 10° 05:32:31 10° 213° (SSW) 1,778 2.8 -6.7°
Maximum altitude 05:34:45 14° 180° (S) 1,524 2.8 -6.4°
Drops below altitude 10° 05:36:59 10° 147° (SSE) 1,778 3.4 -6.1°
Sets 05:40:07 0° 122° (ESE) 2,668 4.7 -5.6°
